Starlink 5124

operational
NORAD ID: 54011 Int'l Des: 2022-125 Owner: SPXS Country: US Constellation: starlink
LEOCIRCULAR

关于 Starlink 5124

正在加载描述...

实时位置

正在加载3D地球...

即将过境

高度历史

Altitude vs Time

uPlot chart will show altitude changes over time

两行轨道根数

1 54011U 22125AZ 26061.62104011 .00003705 00000-0 25087-3 0 9993
2 54011 53.2163 236.0046 0001211 102.4590 257.6537 15.08821934188531
Epoch: Mar 2, 2026 • Age: 30 hours

当前状态

高度 540.6 km
速度 7.59 km/s
星下点 -1.02°S, 162.72°E
发射日期 Oct 5, 2022
运行时间 3.4 years
类型 internet

技术详情

分类 Payload
质量 305.00 kg
干质量 290.00 kg
总质量 305.00 kg
长度 0.20 m
直径 2.80 m
跨度 9.00 m
形状 Box + pan
制造商 SPXS
平台类型 Starlink
阶段状态 In Orbit
所有者/国家 SPXS/US

大型星座

Loading constellations...